TimeCDT,TemperatureF,Dew PointF,Humidity,Sea Level PressureIn,VisibilityMPH,Wind Direction,Wind SpeedMPH,Gust SpeedMPH,PrecipitationIn,Events,Conditions,WindDirDegrees,DateUTC
12:20 AM,71.6,69.8,94,30.07,9.0,SE,3.5,-,N/A,,Clear,140,2013-05-20 05:20:00
12:49 AM,71.6,68.0,88,30.07,9.0,ENE,6.9,-,N/A,,Scattered Clouds,70,2013-05-20 05:49:00
12:56 AM,70.0,68.0,93,30.02,8.0,East,5.8,-,N/A,,Partly Cloudy,80,2013-05-20 05:56:00
1:28 AM,69.8,68.0,94,30.05,1.8,Calm,Calm,-,N/A,,Clear,0,2013-05-20 06:28:00
1:36 AM,69.8,68.0,94,30.05,3.0,ESE,3.5,-,N/A,,Clear,120,2013-05-20 06:36:00
1:56 AM,70.0,66.9,90,30.00,4.0,SSE,4.6,-,N/A,,Scattered Clouds,150,2013-05-20 06:56:00
2:01 AM,69.8,68.0,94,30.04,1.8,SSE,4.6,-,N/A,,Mostly Cloudy,160,2013-05-20 07:01:00
2:11 AM,69.8,66.2,88,30.03,0.5,South,4.6,-,N/A,Fog,Fog,180,2013-05-20 07:11:00
2:39 AM,69.8,68.0,94,30.02,1.5,South,3.5,-,N/A,,Overcast,180,2013-05-20 07:39:00
2:56 AM,70.0,68.0,93,29.97,1.2,South,3.5,-,N/A,,Overcast,190,2013-05-20 07:56:00
3:14 AM,69.8,68.0,94,30.00,3.0,South,3.5,-,N/A,,Overcast,180,2013-05-20 08:14:00
3:34 AM,69.8,69.8,100,29.99,3.0,SSW,3.5,-,N/A,,Partly Cloudy,210,2013-05-20 08:34:00
3:56 AM,71.1,69.1,93,29.95,8.0,South,3.5,-,N/A,,Clear,190,2013-05-20 08:56:00
4:16 AM,71.6,69.8,94,29.99,2.0,Calm,Calm,-,N/A,,Clear,0,2013-05-20 09:16:00
4:22 AM,69.8,69.8,100,29.99,1.0,Calm,Calm,-,N/A,,Mist,0,2013-05-20 09:22:00
4:29 AM,69.8,68.0,94,29.99,0.5,Calm,Calm,-,N/A,Fog,Fog,0,2013-05-20 09:29:00
4:41 AM,69.8,68.0,94,29.98,2.0,SW,4.6,-,N/A,,Mostly Cloudy,220,2013-05-20 09:41:00
4:53 AM,69.8,68.0,94,29.98,6.0,Variable,3.5,-,N/A,,Mostly Cloudy,0,2013-05-20 09:53:00
4:56 AM,70.0,69.1,97,29.94,7.0,SSW,3.5,-,N/A,,Mostly Cloudy,210,2013-05-20 09:56:00
5:03 AM,71.6,69.8,94,29.98,9.0,SW,4.6,-,N/A,,Scattered Clouds,220,2013-05-20 10:03:00
5:54 AM,71.6,69.8,94,30.00,1.5,Calm,Calm,-,N/A,,Clear,0,2013-05-20 10:54:00
5:56 AM,71.1,69.1,93,29.96,1.0,Calm,Calm,-,N/A,,Mist,0,2013-05-20 10:56:00
6:04 AM,71.6,69.8,94,30.00,0.5,Calm,Calm,-,N/A,Fog,Fog,0,2013-05-20 11:04:00
6:21 AM,71.6,69.8,94,30.02,2.5,ENE,4.6,-,N/A,,Mostly Cloudy,60,2013-05-20 11:21:00
6:28 AM,71.6,69.8,94,30.02,10.0,ENE,3.5,-,N/A,,Overcast,70,2013-05-20 11:28:00
6:56 AM,72.0,70.0,93,29.99,10.0,ENE,3.5,-,N/A,,Overcast,60,2013-05-20 11:56:00
7:40 AM,73.4,71.6,94,30.05,10.0,Calm,Calm,-,N/A,,Overcast,0,2013-05-20 12:40:00
7:56 AM,75.0,71.1,87,30.01,10.0,Calm,Calm,-,N/A,,Mostly Cloudy,0,2013-05-20 12:56:00
8:39 AM,78.8,69.8,74,30.06,10.0,Calm,Calm,-,N/A,,Mostly Cloudy,0,2013-05-20 13:39:00
8:52 AM,78.8,69.8,74,30.06,10.0,Variable,3.5,-,N/A,,Partly Cloudy,0,2013-05-20 13:52:00
8:56 AM,78.1,70.0,76,30.02,10.0,Calm,Calm,-,N/A,,Partly Cloudy,0,2013-05-20 13:56:00
9:56 AM,81.0,68.0,65,30.02,10.0,SSW,5.8,-,N/A,,Partly Cloudy,200,2013-05-20 14:56:00
10:56 AM,82.9,68.0,60,30.02,10.0,SSE,4.6,-,N/A,,Clear,160,2013-05-20 15:56:00
11:56 AM,86.0,68.0,55,30.02,10.0,SSW,8.1,-,N/A,,Clear,210,2013-05-20 16:56:00
12:56 PM,87.1,66.0,49,30.01,10.0,South,9.2,-,N/A,,Partly Cloudy,190,2013-05-20 17:56:00
1:56 PM,88.0,63.0,43,30.00,10.0,SSW,6.9,-,N/A,,Clear,200,2013-05-20 18:56:00
2:56 PM,87.1,66.0,49,29.98,10.0,SSW,8.1,-,N/A,,Clear,200,2013-05-20 19:56:00
3:56 PM,86.0,66.9,53,29.97,10.0,South,12.7,-,N/A,,Clear,180,2013-05-20 20:56:00
4:56 PM,84.0,69.1,61,29.96,10.0,SSE,12.7,16.1,N/A,,Clear,160,2013-05-20 21:56:00
5:56 PM,82.0,69.1,65,29.95,10.0,SSW,9.2,-,N/A,,Clear,200,2013-05-20 22:56:00
6:56 PM,79.0,70.0,74,29.95,10.0,South,8.1,-,N/A,,Clear,170,2013-05-20 23:56:00
7:56 PM,75.0,69.1,82,29.95,10.0,South,5.8,-,N/A,,Clear,180,2013-05-21 00:56:00
8:56 PM,73.9,69.1,85,29.96,10.0,SSW,3.5,-,N/A,,Clear,200,2013-05-21 01:56:00
9:56 PM,73.9,69.1,85,29.97,10.0,SSW,3.5,-,N/A,,Clear,200,2013-05-21 02:56:00
10:56 PM,72.0,69.1,91,29.96,10.0,SSE,3.5,-,N/A,,Clear,160,2013-05-21 03:56:00
11:56 PM,72.0,70.0,93,29.97,9.0,Calm,Calm,-,N/A,,Clear,0,2013-05-21 04:56:00